[Iaude] MPEC J83: 2024 JV1 [a=1.08,e=0.07,i=27.4,H=25.4]

mpec at cfa.harvard.edu mpec at cfa.harvard.edu
Sun May 5 13:00:56 EDT 2024


M.P.E.C. 2024-J83                                   Issued 2024 May 5, 16:59 UT

     The Minor Planet Electronic Circulars contain information on unusual
         minor planets, routine data on comets and natural satellites,
         and occasional editorial announcements.  They are published
    on behalf of Division F of the International Astronomical Union by the
          Minor Planet Center, Smithsonian Astrophysical Observatory,
                          Cambridge, MA 02138, U.S.A.
			  
             Prepared using the Tamkin Foundation Computer Network

                              MPC at CFA.HARVARD.EDU
            URL https://www.minorplanetcenter.net/    ISSN 1523-6714

                                    2024 JV1                                    


Observations:
     K24J01V 1C2024 05 03.34790 13 46 38.22 +15 12 26.2          21.3 GVEJ083G96
     K24J01V 1C2024 05 03.35307 13 46 38.98 +15 13 59.2          21.0 GVEJ083G96
     K24J01V* C2024 05 04.34644213 49 31.724+19 56 13.45         21.12GVEJ083V00
     K24J01V  C2024 05 04.35206713 49 32.452+19 57 41.87         21.65GVEJ083V00
     K24J01V  C2024 05 04.35767213 49 33.186+19 59 10.86         21.49GVEJ083V00
     K24J01V  C2024 05 04.36327913 49 33.902+20 00 38.02         21.13GVEJ083V00
     K24J01V 1C2024 05 04.42411513 49 42.190+20 16 25.97         21.65GVEJ083G96
     K24J01V 1C2024 05 04.42536013 49 42.366+20 16 44.29         21.05GVEJ083G96
     K24J01V 1C2024 05 04.42660613 49 42.510+20 17 04.56         21.10GVEJ083G96
     K24J01V 1C2024 05 04.42785113 49 42.740+20 17 24.76         20.86GVEJ083G96
     K24J01V 7C2024 05 05.06496913 51 28.239+22 56 07.93         20.9 GVEJ083Z84
     K24J01V 7C2024 05 05.07984213 51 30.127+22 59 37.40         20.5 GVEJ083Z84
     K24J01V KC2024 05 05.17299413 51 52.592+23 21 44.35         21.92GVEJ083I52
     K24J01V KC2024 05 05.17603213 51 52.981+23 22 28.20         21.68GVEJ083I52
     K24J01V KC2024 05 05.17907713 51 53.341+23 23 10.54         21.23GVEJ083I52
     K24J01V KC2024 05 05.18212413 51 53.730+23 23 53.20         21.50GVEJ083I52

Observer details:
G96 Mt. Lemmon Survey.  Observer H. Groeller.  Measurers B. Gray, D. Rankin,
    F. C. Shelly, T. Beuden, V. F. Carvajal, D. Fay, J. B. Fazekas, D. C.
    Fuls, A. R. Gibbs, A. D. Grauer, H. Groeller, J. K. Hogan, R. A. Kowalski,
    S. M. Larson, G. J. Leonard, R. L. Seaman, K. W. Wierzchos.  1.5-m
    reflector + 10K CCD.
I52 Steward Observatory, Mt. Lemmon Station.  Observer V. F. Carvajal.
    Measurers T. Beuden, V. F. Carvajal, D. Fay, J. B. Fazekas, D. C. Fuls, A.
    R. Gibbs, A. D. Grauer, H. Groeller, J. K. Hogan, R. A. Kowalski, S. M.
    Larson, G. J. Leonard, D. Rankin, R. L. Seaman, F. C. Shelly, K. W.
    Wierzchos.  1.0-m prime focus + CCD.
V00 Kitt Peak-Bok.  Observer R. A. Mastaler.  Measurers M. J. Brucker, C. E.
    Woodward, T. Beuden, V. F. Carvajal, D. Fay, J. B. Fazekas, D. C. Fuls, A.
    R. Gibbs, H. Groeller, J. K. Hogan, R. A. Kowalski, S. M. Larson, C.
    Lejoly, G. J. Leonard, R. A. Mastaler, R. S. McMillan, D. Rankin, R. L.
    Seaman, F. C. Shelly, K. W. Wierzchos.  2.25-m reflector + 4x4K mosaic
    CCD.
Z84 Calar Alto-Schmidt.  Observers F. Ocana, R. Kresken, M. Micheli, L.
    Conversi.  Measurers F. Ocana, M. Micheli.  0.8-m f/3 Schmidt + CCD.

Orbital elements:
2024 JV1                                                 Earth MOID = 0.0567 AU
Epoch 2024 Mar. 31.0 TT = JDT 2460400.5                 Bell                    
M  49.41102              (2000.0)            P               Q                  
n   0.88053212     Peri.  276.85009     -0.64249383     -0.71066530             
a   1.0780509      Node   218.53536     +0.74618839     -0.66533786             
e   0.0688069      Incl.   27.39236     -0.17436907     -0.22864899             
P   1.12           H   25.46          G   0.15           U   8                  
Residuals in seconds of arc
240503 G96  0.1-  0.6+    240504 G96  0.0   0.5+    240505 I52  0.1-  0.3-
240503 G96  0.4+  0.5-    240504 G96  0.0   0.4-    240505 I52  0.2+  0.5+
240504 V00  0.1+  0.0     240504 G96  0.5-  0.5+    240505 I52  0.0   0.2-
240504 V00  0.1+  0.1-    240504 G96  0.3+  1.4+    240505 I52  0.3+  0.6-
240504 V00 (0.1+  0.8+)   240505 Z84  0.2+  0.2+
240504 V00  0.1-  0.1-    240505 Z84  0.0   0.1-

Ephemeris:
2024 JV1                 a,e,i = 1.08, 0.07, 27                  q = 1.0039
Date    TT    R. A. (2000) Decl.     Delta      r    Elong.  Phase     V
2024 04 05    06 53 12.5 -82 45 08   0.1918  1.0378    95.9    73.5    24.5
...
2024 04 20    12 25 29.1 -67 43 45   0.08751 1.0536   122.0    54.0    22.3
...
2024 04 28    13 26 23.9 -21 26 50   0.05765 1.0625   164.9    14.3    20.2
...
2024 05 04    13 48 36.2 +18 22 39   0.07521 1.0693   143.0    34.6    21.4
2024 05 05    13 51 21.5 +22 40 59   0.08072 1.0705   138.6    38.5    21.7
2024 05 06    13 53 55.3 +26 23 50   0.08665 1.0716   134.8    41.9    21.9
...
2024 05 12    14 06 22.1 +40 16 23   0.1273  1.0784   119.4    54.7    23.1
...
2024 05 20    14 18 22.0 +47 59 11   0.1866  1.0875   109.2    61.5    24.2
...
2024 06 04    14 35 18.1 +52 25 38   0.2962  1.1037    99.7    65.0    25.3

M. P. C. Staff               (C) Copyright 2024 MPC           M.P.E.C. 2024-J83





More information about the Iaude mailing list